ION SCV-018

基本信息
目录编号:
64575
目录名称:
ION SCV-018
国际标识:
2025-135AZ
轨道中心:
EARTH
卫星名称:
ION SCV-018
卫星全名:
ION SCV-018
卫星状态:
在轨 (已飞行173 天)
发射日期:
2025-06-23 UTC
国别 :
意大利 (IT)
星等 :
--
轨道信息
数据来源 国际轨道数据
星历时间: 2025-12-13T05:08:42+0800
12小时前
查看轨道信息
半长轴: 6963.174km
偏心率: 0.0012472
轨道倾角: 97.763°
近地点辐角 186.318°
升交点赤经 98.909°
平近点角 173.789°
近地点: 576.354km
远地点: 593.724km
周期: 96.376分钟
每日圈数: 14.941423
详细信息
使用方式:
暂无
2D轨道图
3D轨道图
轨道高度分析图
轨道倾角分析图
轨道综合分析图
查看轨道综合分析图